This is the latest recevied weather packets stored in our database for station/object AB2HM. If no packets are shown the sender has not sent any weather packets the latest 10 day(s).
| Time | Temp. | Humidity | Pressure | Rain* | Wind** | Luminosity | Snow |
|---|---|---|---|---|---|---|---|
| 1777549849 | 11.11° C | 95% | 1008.5 hPa | 0 mm | - | - | - |
| 1777548046 | 11.11° C | 95% | 1008.6 hPa | 0 mm | - | - | - |
| 1777546244 | 10.56° C | 95% | 1008.5 hPa | 0 mm | - | - | - |
| 1777544443 | 10.56° C | 95% | 1008.4 hPa | 0 mm | - | - | - |
| 1777542641 | 10.56° C | 95% | 1008.2 hPa | 0 mm | - | - | - |
| 1777540819 | 10.56° C | 95% | 1008 hPa | 0 mm | - | - | - |
| 1777539003 | 10.56° C | 95% | 1008 hPa | 0 mm | - | - | - |
| 1777537205 | 10.56° C | 95% | 1007.9 hPa | 0 mm | - | - | - |
| 1777535391 | 10.56° C | 94% | 1008.1 hPa | 0 mm | - | - | - |
| 1777533582 | 10.56° C | 94% | 1008.3 hPa | 0.51 mm | - | - | - |
| 1777531782 | 10.56° C | 94% | 1008.7 hPa | 1.27 mm | - | - | - |
| 1777529978 | 10.56° C | 94% | 1009 hPa | 1.52 mm | - | - | - |
| 1777528178 | 10.56° C | 93% | 1009.2 hPa | 1.78 mm | - | - | - |
| 1777526380 | 10.56° C | 93% | 1009.6 hPa | 2.03 mm | - | - | - |
| 1777524562 | 10.56° C | 93% | 1009.8 hPa | 2.29 mm | - | - | - |
| 1777522760 | 10.56° C | 92% | 1009 hPa | 2.54 mm | - | - | - |
| 1777520954 | 10° C | 92% | 1009.7 hPa | 2.29 mm | - | - | - |
| 1777519151 | 10.56° C | 92% | 1010.1 hPa | 2.03 mm | - | - | - |
| 1777517328 | 10.56° C | 91% | 1011.4 hPa | 2.03 mm | - | - | - |
| 1777515512 | 10.56° C | 90% | 1010.3 hPa | 1.78 mm | - | - | - |
| 1777513710 | 11.11° C | 89% | 1010.7 hPa | 1.52 mm | - | - | - |
| 1777511887 | 11.11° C | 88% | 1010.8 hPa | 0.76 mm | - | - | - |
| 1777510087 | 11.67° C | 85% | 1010.9 hPa | 0.51 mm | - | - | - |
| 1777508267 | 11.67° C | 83% | 1011 hPa | 0.76 mm | - | - | - |
| 1777506464 | 11.67° C | 79% | 1011.4 hPa | 0.51 mm | - | - | - |
* Rain latest hour (hover to see other rain measurements)
** Current wind speed in m/s (hover to see current wind gust speed)